Location: Mount Wilson Observatory
(34.2257°N, 118.0571°W)
Time: 05:15:39
(UTC-08:00)

ATLAS 3B CENTAUR R/B - Visible Passes

Search period start: 21 January 2017 00:00
Search period end: 31 January 2017 00:00
Orbit: 225 x 6292 km, 28.1° (Epoch: 20 January)

Date Brightness Start Highest point End Pass type
(mag) Time Alt. Az. Time Alt. Az. Time Alt. Az.
21 Jan 4.1 04:55:55 14° SSW 04:59:59 31° SE 05:10:27 10° E visible
22 Jan 4.0 04:27:55 18° S 04:30:17 23° SE 04:37:43 10° E visible
23 Jan 4.3 03:59:45 16° SE 04:00:32 16° SE 04:05:00 10° E visible
24 Jan 4.0 06:09:11 10° WSW 06:15:00 57° SSE 06:31:40 10° E visible
25 Jan 3.7 05:39:43 12° SW 05:44:25 51° SSE 05:57:54 10° E visible
26 Jan 3.3 05:11:01 22° SW 05:13:50 43° SSE 05:24:27 10° E visible
27 Jan 3.1 04:42:09 31° S 04:43:14 34° SSE 04:51:17 10° E visible
28 Jan 3.6 04:13:08 25° SE 04:13:08 25° SE 04:18:20 10° E visible
29 Jan 4.5 03:43:56 14° ESE 03:43:56 14° ESE 03:45:30 10° ESE visible
29 Jan 3.7 06:21:35 10° WSW 06:26:57 58° S 06:42:07 10° ESE visible
30 Jan 3.3 05:51:19 12° WSW 05:55:34 53° S 06:07:48 10° E visible
